iso_date,epoch_date,Year,Hour,Min,DOY,POS_DOY,Lat,Lon,BP,Ts,Ta,has_bp,has_ts,has_ta,BuoyID,Buoy_Type,Buoy_Owner,Logistics,Hemisphere
2019-10-20T03:26:03Z,1571541964,2019,3,26,293.1431,293.1431,84.9742,132.7658,-999.00,-11.0,-999.0,no,yes,no,300234068314190,SVP,PRIC,MOSAiC,North
2019-10-20T04:00:02Z,1571544003,2019,4,0,293.1667,293.1667,84.9758,132.761,-999.00,-10.5,-999.0,no,yes,no,300234068314190,SVP,PRIC,MOSAiC,North
2019-10-20T04:59:57Z,1571547597,2019,5,0,293.2083,293.2083,84.9786,132.7518,-999.00,-4.7,-999.0,no,yes,no,300234068314190,SVP,PRIC,MOSAiC,North
2019-10-20T06:00:00Z,1571551200,2019,6,0,293.25,293.25,84.9806,132.7468,-999.00,-5.8,-999.0,no,yes,no,300234068314190,SVP,PRIC,MOSAiC,North
2019-10-20T07:00:02Z,1571554803,2019,7,0,293.2917,293.2917,84.9826,132.7416,-999.00,-8.0,-999.0,no,yes,no,300234068314190,SVP,PRIC,MOSAiC,North
2019-10-20T07:59:57Z,1571558397,2019,8,0,293.3333,293.3333,84.9846,132.7338,-999.00,-9.3,-999.0,no,yes,no,300234068314190,SVP,PRIC,MOSAiC,North
2019-10-20T09:00:00Z,1571562000,2019,9,0,293.375,293.375,84.9862,132.7222,-999.00,-9.8,-999.0,no,yes,no,300234068314190,SVP,PRIC,MOSAiC,North
2019-10-20T10:00:02Z,1571565603,2019,10,0,293.4167,293.4167,84.9884,132.7092,-999.00,-10.5,-999.0,no,yes,no,300234068314190,SVP,PRIC,MOSAiC,North
2019-10-20T10:59:57Z,1571569197,2019,11,0,293.4583,293.4146,84.9884,132.7092,-999.00,-11.3,-999.0,no,yes,no,300234068314190,SVP,PRIC,MOSAiC,North
2019-10-20T12:00:00Z,1571572800,2019,12,0,293.5,293.5,84.9944,132.6786,-999.00,-12.0,-999.0,no,yes,no,300234068314190,SVP,PRIC,MOSAiC,North
2019-10-20T13:00:02Z,1571576403,2019,13,0,293.5417,293.5417,84.9986,132.6666,-999.00,-12.8,-999.0,no,yes,no,300234068314190,SVP,PRIC,MOSAiC,North
2019-10-20T13:59:57Z,1571579997,2019,14,0,293.5833,293.5833,85.003,132.6596,-999.00,-12.6,-999.0,no,yes,no,300234068314190,SVP,PRIC,MOSAiC,North
2019-10-20T15:00:00Z,1571583600,2019,15,0,293.625,293.625,85.0078,132.6606,-999.00,-11.5,-999.0,no,yes,no,300234068314190,SVP,PRIC,MOSAiC,North
2019-10-20T16:00:02Z,1571587203,2019,16,0,293.6667,293.6667,85.0128,132.6716,-999.00,-10.6,-999.0,no,yes,no,300234068314190,SVP,PRIC,MOSAiC,North
2019-10-20T16:59:57Z,1571590797,2019,17,0,293.7083,293.7083,85.0178,132.6964,-999.00,-9.5,-999.0,no,yes,no,300234068314190,SVP,PRIC,MOSAiC,North
2019-10-20T18:00:00Z,1571594400,2019,18,0,293.75,293.75,85.0228,132.7294,-999.00,-9.0,-999.0,no,yes,no,300234068314190,SVP,PRIC,MOSAiC,North
2019-10-20T19:00:02Z,1571598003,2019,19,0,293.7917,293.7917,85.0272,132.764,-999.00,-10.4,-999.0,no,yes,no,300234068314190,SVP,PRIC,MOSAiC,North
2019-10-20T19:59:57Z,1571601597,2019,20,0,293.8333,293.8333,85.0304,132.7912,-999.00,-12.5,-999.0,no,yes,no,300234068314190,SVP,PRIC,MOSAiC,North
2019-10-20T21:00:00Z,1571605200,2019,21,0,293.875,293.875,85.0334,132.8072,-999.00,-13.6,-999.0,no,yes,no,300234068314190,SVP,PRIC,MOSAiC,North
2019-10-20T22:00:02Z,1571608803,2019,22,0,293.9167,293.9167,85.0366,132.807,-999.00,-13.4,-999.0,no,yes,no,300234068314190,SVP,PRIC,MOSAiC,North
2019-10-20T22:59:57Z,1571612397,2019,23,0,293.9583,293.9583,85.0406,132.794,-999.00,-12.8,-999.0,no,yes,no,300234068314190,SVP,PRIC,MOSAiC,North
2019-10-21T00:00:00Z,1571616000,2019,0,0,294.0,294.0,85.047,132.7804,-999.00,-11.5,-999.0,no,yes,no,300234068314190,SVP,PRIC,MOSAiC,North
2019-10-21T01:00:02Z,1571619603,2019,1,0,294.0417,294.0417,85.0542,132.7644,-999.00,-10.6,-999.0,no,yes,no,300234068314190,SVP,PRIC,MOSAiC,North
2019-10-21T01:59:57Z,1571623197,2019,2,0,294.0833,294.0833,85.0622,132.7522,-999.00,-9.9,-999.0,no,yes,no,300234068314190,SVP,PRIC,MOSAiC,North
2019-10-21T03:00:00Z,1571626800,2019,3,0,294.125,294.125,85.0698,132.7434,-999.00,-9.2,-999.0,no,yes,no,300234068314190,SVP,PRIC,MOSAiC,North
2019-10-21T04:00:02Z,1571630403,2019,4,0,294.1667,294.1667,85.0718,132.9272,-999.00,-6.6,-999.0,no,yes,no,300234068314190,SVP,PRIC,MOSAiC,North
2019-10-21T04:59:57Z,1571633997,2019,5,0,294.2083,294.2083,85.0854,132.736,-999.00,-5.5,-999.0,no,yes,no,300234068314190,SVP,PRIC,MOSAiC,North
2019-10-21T06:00:00Z,1571637600,2019,6,0,294.25,294.25,85.0792,132.9068,-999.00,-4.8,-999.0,no,yes,no,300234068314190,SVP,PRIC,MOSAiC,North
2019-10-21T07:00:02Z,1571641203,2019,7,0,294.2917,294.2917,85.0842,132.8938,-999.00,-11.7,-999.0,no,yes,no,300234068314190,SVP,PRIC,MOSAiC,North
2019-10-21T07:59:57Z,1571644797,2019,8,0,294.3333,294.3333,85.0888,132.8706,-999.00,-10.3,-999.0,no,yes,no,300234068314190,SVP,PRIC,MOSAiC,North
2019-10-21T09:00:00Z,1571648400,2019,9,0,294.375,294.375,85.0934,132.8372,-999.00,-11.2,-999.0,no,yes,no,300234068314190,SVP,PRIC,MOSAiC,North
2019-10-21T10:00:02Z,1571652003,2019,10,0,294.4167,294.4167,85.0988,132.7944,-999.00,-9.2,-999.0,no,yes,no,300234068314190,SVP,PRIC,MOSAiC,North
2019-10-21T10:59:57Z,1571655597,2019,11,0,294.4583,294.4583,85.1048,132.7448,-999.00,-9.4,-999.0,no,yes,no,300234068314190,SVP,PRIC,MOSAiC,North
2019-10-21T12:00:00Z,1571659200,2019,12,0,294.5,294.5,85.1118,132.6932,-999.00,-9.1,-999.0,no,yes,no,300234068314190,SVP,PRIC,MOSAiC,North
2019-10-21T13:00:02Z,1571662803,2019,13,0,294.5417,294.5417,85.119,132.6418,-999.00,-9.1,-999.0,no,yes,no,300234068314190,SVP,PRIC,MOSAiC,North
2019-10-21T13:59:57Z,1571666397,2019,14,0,294.5833,294.5833,85.1266,132.5932,-999.00,-8.7,-999.0,no,yes,no,300234068314190,SVP,PRIC,MOSAiC,North
2019-10-21T15:00:00Z,1571670000,2019,15,0,294.625,294.625,85.1342,132.5482,-999.00,-8.4,-999.0,no,yes,no,300234068314190,SVP,PRIC,MOSAiC,North
2019-10-21T16:00:02Z,1571673603,2019,16,0,294.6667,294.6667,85.1412,132.5066,-999.00,-8.3,-999.0,no,yes,no,300234068314190,SVP,PRIC,MOSAiC,North
2019-10-21T16:59:57Z,1571677197,2019,17,0,294.7083,294.7083,85.1476,132.4668,-999.00,-8.2,-999.0,no,yes,no,300234068314190,SVP,PRIC,MOSAiC,North
2019-10-21T18:00:00Z,1571680800,2019,18,0,294.75,294.75,85.1534,132.4264,-999.00,-8.7,-999.0,no,yes,no,300234068314190,SVP,PRIC,MOSAiC,North
2019-10-21T19:00:02Z,1571684403,2019,19,0,294.7917,294.7917,85.1586,132.3846,-999.00,-8.3,-999.0,no,yes,no,300234068314190,SVP,PRIC,MOSAiC,North
2019-10-21T19:59:57Z,1571687997,2019,20,0,294.8333,294.8333,85.1638,132.3384,-999.00,-8.2,-999.0,no,yes,no,300234068314190,SVP,PRIC,MOSAiC,North
2019-10-21T21:00:00Z,1571691600,2019,21,0,294.875,294.875,85.1694,132.2852,-999.00,-7.6,-999.0,no,yes,no,300234068314190,SVP,PRIC,MOSAiC,North
2019-10-21T22:00:02Z,1571695203,2019,22,0,294.9167,294.9167,85.1752,132.227,-999.00,-7.4,-999.0,no,yes,no,300234068314190,SVP,PRIC,MOSAiC,North
2019-10-21T22:59:57Z,1571698797,2019,23,0,294.9583,294.9583,85.182,132.1646,-999.00,-6.8,-999.0,no,yes,no,300234068314190,SVP,PRIC,MOSAiC,North
2019-10-22T00:00:00Z,1571702400,2019,0,0,295.0,295.0,85.1896,132.1022,-999.00,-6.6,-999.0,no,yes,no,300234068314190,SVP,PRIC,MOSAiC,North
2019-10-22T01:00:02Z,1571706003,2019,1,0,295.0417,295.0417,85.1972,132.0412,-999.00,-7.7,-999.0,no,yes,no,300234068314190,SVP,PRIC,MOSAiC,North
2019-10-22T01:59:57Z,1571709597,2019,2,0,295.0833,295.0833,85.2054,131.983,-999.00,-6.9,-999.0,no,yes,no,300234068314190,SVP,PRIC,MOSAiC,North
2019-10-22T03:00:00Z,1571713200,2019,3,0,295.125,295.125,85.2136,131.9292,-999.00,-6.5,-999.0,no,yes,no,300234068314190,SVP,PRIC,MOSAiC,North
2019-10-22T04:00:02Z,1571716803,2019,4,0,295.1667,295.1667,85.2216,131.8788,-999.00,-6.6,-999.0,no,yes,no,300234068314190,SVP,PRIC,MOSAiC,North
2019-10-22T04:59:57Z,1571720397,2019,5,0,295.2083,295.2083,85.2288,131.8292,-999.00,-6.6,-999.0,no,yes,no,300234068314190,SVP,PRIC,MOSAiC,North
2019-10-22T06:00:00Z,1571724000,2019,6,0,295.25,295.25,85.2352,131.7772,-999.00,-6.7,-999.0,no,yes,no,300234068314190,SVP,PRIC,MOSAiC,North
2019-10-22T07:00:02Z,1571727603,2019,7,0,295.2917,295.2917,85.241,131.7206,-999.00,-7.1,-999.0,no,yes,no,300234068314190,SVP,PRIC,MOSAiC,North
2019-10-22T07:59:57Z,1571731197,2019,8,0,295.3333,295.3333,85.2464,131.6582,-999.00,-7.5,-999.0,no,yes,no,300234068314190,SVP,PRIC,MOSAiC,North
2019-10-22T09:00:00Z,1571734800,2019,9,0,295.375,295.375,85.251,131.5922,-999.00,-7.5,-999.0,no,yes,no,300234068314190,SVP,PRIC,MOSAiC,North
2019-10-22T10:00:02Z,1571738403,2019,10,0,295.4167,295.4167,85.2556,131.523,-999.00,-7.8,-999.0,no,yes,no,300234068314190,SVP,PRIC,MOSAiC,North
2019-10-22T10:59:57Z,1571741997,2019,11,0,295.4583,295.4583,85.26,131.4496,-999.00,-8.4,-999.0,no,yes,no,300234068314190,SVP,PRIC,MOSAiC,North
2019-10-22T12:00:00Z,1571745600,2019,12,0,295.5,295.5,85.2644,131.3754,-999.00,-8.6,-999.0,no,yes,no,300234068314190,SVP,PRIC,MOSAiC,North
2019-10-22T13:00:02Z,1571749203,2019,13,0,295.5417,295.5417,85.2688,131.3022,-999.00,-8.5,-999.0,no,yes,no,300234068314190,SVP,PRIC,MOSAiC,North
2019-10-22T13:59:57Z,1571752797,2019,14,0,295.5833,295.5833,85.2732,131.2302,-999.00,-9.4,-999.0,no,yes,no,300234068314190,SVP,PRIC,MOSAiC,North
2019-10-22T15:00:00Z,1571756400,2019,15,0,295.625,295.625,85.2776,131.1636,-999.00,-9.9,-999.0,no,yes,no,300234068314190,SVP,PRIC,MOSAiC,North
2019-10-22T16:00:02Z,1571760003,2019,16,0,295.6667,295.6667,85.282,131.1016,-999.00,-9.2,-999.0,no,yes,no,300234068314190,SVP,PRIC,MOSAiC,North
2019-10-22T16:59:57Z,1571763597,2019,17,0,295.7083,295.7083,85.2862,131.0428,-999.00,-8.8,-999.0,no,yes,no,300234068314190,SVP,PRIC,MOSAiC,North
2019-10-22T18:00:00Z,1571767200,2019,18,0,295.75,295.75,85.2902,130.9896,-999.00,-8.5,-999.0,no,yes,no,300234068314190,SVP,PRIC,MOSAiC,North
2019-10-22T19:00:02Z,1571770803,2019,19,0,295.7917,295.7917,85.294,130.9374,-999.00,-8.2,-999.0,no,yes,no,300234068314190,SVP,PRIC,MOSAiC,North
2019-10-22T19:59:57Z,1571774397,2019,20,0,295.8333,295.8333,85.297,130.8858,-999.00,-8.3,-999.0,no,yes,no,300234068314190,SVP,PRIC,MOSAiC,North
2019-10-22T21:00:00Z,1571778000,2019,21,0,295.875,295.875,85.3,130.8302,-999.00,-8.4,-999.0,no,yes,no,300234068314190,SVP,PRIC,MOSAiC,North
2019-10-22T22:00:02Z,1571781603,2019,22,0,295.9167,295.9167,85.303,130.7728,-999.00,-8.7,-999.0,no,yes,no,300234068314190,SVP,PRIC,MOSAiC,North
2019-10-22T22:59:57Z,1571785197,2019,23,0,295.9583,295.9583,85.3062,130.7116,-999.00,-8.7,-999.0,no,yes,no,300234068314190,SVP,PRIC,MOSAiC,North
2019-10-23T00:00:00Z,1571788800,2019,0,0,296.0,296.0,85.3096,130.6494,-999.00,-8.7,-999.0,no,yes,no,300234068314190,SVP,PRIC,MOSAiC,North
2019-10-23T01:00:02Z,1571792403,2019,1,0,296.0417,296.0417,85.313,130.5878,-999.00,-8.9,-999.0,no,yes,no,300234068314190,SVP,PRIC,MOSAiC,North
2019-10-23T01:59:57Z,1571795997,2019,2,0,296.0833,296.0833,85.3166,130.5258,-999.00,-9.1,-999.0,no,yes,no,300234068314190,SVP,PRIC,MOSAiC,North
2019-10-23T03:00:00Z,1571799600,2019,3,0,296.125,296.125,85.3202,130.467,-999.00,-9.4,-999.0,no,yes,no,300234068314190,SVP,PRIC,MOSAiC,North
2019-10-23T04:00:02Z,1571803203,2019,4,0,296.1667,296.1667,85.3234,130.4138,-999.00,-9.9,-999.0,no,yes,no,300234068314190,SVP,PRIC,MOSAiC,North
2019-10-23T04:59:57Z,1571806797,2019,5,0,296.2083,296.2083,85.3262,130.3618,-999.00,-10.1,-999.0,no,yes,no,300234068314190,SVP,PRIC,MOSAiC,North
2019-10-23T06:00:00Z,1571810400,2019,6,0,296.25,296.25,85.3284,130.3136,-999.00,-10.3,-999.0,no,yes,no,300234068314190,SVP,PRIC,MOSAiC,North
2019-10-23T07:00:02Z,1571814003,2019,7,0,296.2917,296.2917,85.3302,130.2662,-999.00,-11.0,-999.0,no,yes,no,300234068314190,SVP,PRIC,MOSAiC,North
2019-10-23T07:59:57Z,1571817597,2019,8,0,296.3333,296.3333,85.3318,130.2184,-999.00,-11.1,-999.0,no,yes,no,300234068314190,SVP,PRIC,MOSAiC,North
2019-10-23T09:00:00Z,1571821200,2019,9,0,296.375,296.375,85.3332,130.1698,-999.00,-12.0,-999.0,no,yes,no,300234068314190,SVP,PRIC,MOSAiC,North
2019-10-23T10:00:02Z,1571824803,2019,10,0,296.4167,296.4167,85.3346,130.1226,-999.00,-13.4,-999.0,no,yes,no,300234068314190,SVP,PRIC,MOSAiC,North
2019-10-23T10:59:57Z,1571828397,2019,11,0,296.4583,296.4583,85.3362,130.0778,-999.00,-15.1,-999.0,no,yes,no,300234068314190,SVP,PRIC,MOSAiC,North
2019-10-23T12:00:00Z,1571832000,2019,12,0,296.5,296.5,85.338,130.0392,-999.00,-16.6,-999.0,no,yes,no,300234068314190,SVP,PRIC,MOSAiC,North
2019-10-23T13:00:02Z,1571835603,2019,13,0,296.5417,296.5417,85.3398,130.0036,-999.00,-16.3,-999.0,no,yes,no,300234068314190,SVP,PRIC,MOSAiC,North
2019-10-23T13:59:57Z,1571839197,2019,14,0,296.5833,296.5833,85.3418,129.9684,-999.00,-13.5,-999.0,no,yes,no,300234068314190,SVP,PRIC,MOSAiC,North
2019-10-23T15:00:00Z,1571842800,2019,15,0,296.625,296.625,85.344,129.9378,-999.00,-12.5,-999.0,no,yes,no,300234068314190,SVP,PRIC,MOSAiC,North
2019-10-23T16:00:02Z,1571846403,2019,16,0,296.6667,296.6667,85.346,129.9088,-999.00,-11.7,-999.0,no,yes,no,300234068314190,SVP,PRIC,MOSAiC,North
2019-10-23T16:59:57Z,1571849997,2019,17,0,296.7083,296.7083,85.3478,129.88,-999.00,-11.2,-999.0,no,yes,no,300234068314190,SVP,PRIC,MOSAiC,North
2019-10-23T18:00:00Z,1571853600,2019,18,0,296.75,296.75,85.3496,129.8514,-999.00,-10.9,-999.0,no,yes,no,300234068314190,SVP,PRIC,MOSAiC,North
2019-10-23T19:00:02Z,1571857203,2019,19,0,296.7917,296.7917,85.351,129.8226,-999.00,-11.4,-999.0,no,yes,no,300234068314190,SVP,PRIC,MOSAiC,North
2019-10-23T19:59:57Z,1571860797,2019,20,0,296.8333,296.8333,85.3526,129.7928,-999.00,-12.8,-999.0,no,yes,no,300234068314190,SVP,PRIC,MOSAiC,North
2019-10-23T21:00:00Z,1571864400,2019,21,0,296.875,296.875,85.354,129.76,-999.00,-13.4,-999.0,no,yes,no,300234068314190,SVP,PRIC,MOSAiC,North
2019-10-23T22:00:02Z,1571868003,2019,22,0,296.9167,296.9167,85.3558,129.7226,-999.00,-12.9,-999.0,no,yes,no,300234068314190,SVP,PRIC,MOSAiC,North
2019-10-23T22:59:57Z,1571871597,2019,23,0,296.9583,296.9583,85.3578,129.6838,-999.00,-14.4,-999.0,no,yes,no,300234068314190,SVP,PRIC,MOSAiC,North
2019-10-24T00:00:00Z,1571875200,2019,0,0,297.0,297.0,85.3602,129.6444,-999.00,-15.2,-999.0,no,yes,no,300234068314190,SVP,PRIC,MOSAiC,North
2019-10-24T01:00:02Z,1571878803,2019,1,0,297.0417,297.0417,85.3632,129.6028,-999.00,-12.7,-999.0,no,yes,no,300234068314190,SVP,PRIC,MOSAiC,North
2019-10-24T01:59:57Z,1571882397,2019,2,0,297.0833,297.0833,85.3666,129.5636,-999.00,-11.4,-999.0,no,yes,no,300234068314190,SVP,PRIC,MOSAiC,North
2019-10-24T03:00:00Z,1571886000,2019,3,0,297.125,297.125,85.3704,129.53,-999.00,-11.5,-999.0,no,yes,no,300234068314190,SVP,PRIC,MOSAiC,North
2019-10-24T04:00:02Z,1571889603,2019,4,0,297.1667,297.1667,85.374,129.498,-999.00,-11.3,-999.0,no,yes,no,300234068314190,SVP,PRIC,MOSAiC,North
2019-10-24T04:59:57Z,1571893197,2019,5,0,297.2083,297.2083,85.3772,129.466,-999.00,-11.4,-999.0,no,yes,no,300234068314190,SVP,PRIC,MOSAiC,North
2019-10-24T06:00:00Z,1571896800,2019,6,0,297.25,297.25,85.3804,129.4316,-999.00,-11.0,-999.0,no,yes,no,300234068314190,SVP,PRIC,MOSAiC,North
2019-10-24T07:00:02Z,1571900403,2019,7,0,297.2917,297.2917,85.3832,129.3926,-999.00,-11.1,-999.0,no,yes,no,300234068314190,SVP,PRIC,MOSAiC,North
2019-10-24T07:59:57Z,1571903997,2019,8,0,297.3333,297.3333,85.3862,129.3526,-999.00,-11.3,-999.0,no,yes,no,300234068314190,SVP,PRIC,MOSAiC,North
2019-10-24T09:00:00Z,1571907600,2019,9,0,297.375,297.375,85.3886,129.3058,-999.00,-11.8,-999.0,no,yes,no,300234068314190,SVP,PRIC,MOSAiC,North
2019-10-24T10:00:02Z,1571911203,2019,10,0,297.4167,297.4167,85.3908,129.2542,-999.00,-12.1,-999.0,no,yes,no,300234068314190,SVP,PRIC,MOSAiC,North
2019-10-24T10:59:57Z,1571914797,2019,11,0,297.4583,297.4583,85.3934,129.1998,-999.00,-12.5,-999.0,no,yes,no,300234068314190,SVP,PRIC,MOSAiC,North
2019-10-24T12:00:00Z,1571918400,2019,12,0,297.5,297.5,85.396,129.1394,-999.00,-12.6,-999.0,no,yes,no,300234068314190,SVP,PRIC,MOSAiC,North
2019-10-24T13:00:02Z,1571922003,2019,13,0,297.5417,297.5417,85.3988,129.0786,-999.00,-12.8,-999.0,no,yes,no,300234068314190,SVP,PRIC,MOSAiC,North
2019-10-24T13:59:57Z,1571925597,2019,14,0,297.5833,297.5833,85.4018,129.017,-999.00,-12.4,-999.0,no,yes,no,300234068314190,SVP,PRIC,MOSAiC,North
2019-10-24T15:00:00Z,1571929200,2019,15,0,297.625,297.625,85.4048,128.9556,-999.00,-12.3,-999.0,no,yes,no,300234068314190,SVP,PRIC,MOSAiC,North
2019-10-24T16:00:02Z,1571932803,2019,16,0,297.6667,297.6667,85.4082,128.8964,-999.00,-12.0,-999.0,no,yes,no,300234068314190,SVP,PRIC,MOSAiC,North
2019-10-24T16:59:57Z,1571936397,2019,17,0,297.7083,297.7083,85.4112,128.8434,-999.00,-12.4,-999.0,no,yes,no,300234068314190,SVP,PRIC,MOSAiC,North
2019-10-24T18:00:00Z,1571940000,2019,18,0,297.75,297.75,85.4142,128.7916,-999.00,-13.3,-999.0,no,yes,no,300234068314190,SVP,PRIC,MOSAiC,North
2019-10-24T19:00:02Z,1571943603,2019,19,0,297.7917,297.7917,85.4166,128.7404,-999.00,-14.7,-999.0,no,yes,no,300234068314190,SVP,PRIC,MOSAiC,North
2019-10-24T19:59:57Z,1571947197,2019,20,0,297.8333,297.8333,85.4184,128.688,-999.00,-15.0,-999.0,no,yes,no,300234068314190,SVP,PRIC,MOSAiC,North
2019-10-24T21:00:00Z,1571950800,2019,21,0,297.875,297.875,85.4198,128.6348,-999.00,-16.0,-999.0,no,yes,no,300234068314190,SVP,PRIC,MOSAiC,North
2019-10-24T22:00:02Z,1571954403,2019,22,0,297.9167,297.9167,85.4212,128.5804,-999.00,-15.7,-999.0,no,yes,no,300234068314190,SVP,PRIC,MOSAiC,North
2019-10-24T22:59:57Z,1571957997,2019,23,0,297.9583,297.9583,85.4228,128.5252,-999.00,-15.2,-999.0,no,yes,no,300234068314190,SVP,PRIC,MOSAiC,North
2019-10-25T00:00:00Z,1571961600,2019,0,0,298.0,298.0,85.4246,128.4702,-999.00,-14.7,-999.0,no,yes,no,300234068314190,SVP,PRIC,MOSAiC,North
2019-10-25T01:00:02Z,1571965203,2019,1,0,298.0417,298.0417,85.4266,128.4206,-999.00,-14.7,-999.0,no,yes,no,300234068314190,SVP,PRIC,MOSAiC,North
2019-10-25T01:59:57Z,1571968797,2019,2,0,298.0833,298.0833,85.4286,128.3726,-999.00,-14.6,-999.0,no,yes,no,300234068314190,SVP,PRIC,MOSAiC,North
2019-10-25T03:00:00Z,1571972400,2019,3,0,298.125,298.125,85.4306,128.3324,-999.00,-14.5,-999.0,no,yes,no,300234068314190,SVP,PRIC,MOSAiC,North
2019-10-25T04:00:02Z,1571976003,2019,4,0,298.1667,298.1667,85.4324,128.299,-999.00,-16.2,-999.0,no,yes,no,300234068314190,SVP,PRIC,MOSAiC,North
2019-10-25T04:59:57Z,1571979597,2019,5,0,298.2083,298.2083,85.4336,128.272,-999.00,-17.6,-999.0,no,yes,no,300234068314190,SVP,PRIC,MOSAiC,North
2019-10-25T06:00:00Z,1571983200,2019,6,0,298.25,298.25,85.4344,128.25,-999.00,-18.8,-999.0,no,yes,no,300234068314190,SVP,PRIC,MOSAiC,North
2019-10-25T07:00:02Z,1571986803,2019,7,0,298.2917,298.2917,85.435,128.229,-999.00,-19.7,-999.0,no,yes,no,300234068314190,SVP,PRIC,MOSAiC,North
2019-10-25T07:59:57Z,1571990397,2019,8,0,298.3333,298.3333,85.4354,128.205,-999.00,-20.1,-999.0,no,yes,no,300234068314190,SVP,PRIC,MOSAiC,North
2019-10-25T09:00:00Z,1571994000,2019,9,0,298.375,298.375,85.4356,128.1766,-999.00,-20.9,-999.0,no,yes,no,300234068314190,SVP,PRIC,MOSAiC,North
2019-10-25T10:00:02Z,1571997603,2019,10,0,298.4167,298.4167,85.436,128.1458,-999.00,-21.3,-999.0,no,yes,no,300234068314190,SVP,PRIC,MOSAiC,North
2019-10-25T10:59:57Z,1572001197,2019,11,0,298.4583,298.4583,85.4364,128.1142,-999.00,-21.8,-999.0,no,yes,no,300234068314190,SVP,PRIC,MOSAiC,North
2019-10-25T12:00:00Z,1572004800,2019,12,0,298.5,298.5,85.4366,128.084,-999.00,-22.4,-999.0,no,yes,no,300234068314190,SVP,PRIC,MOSAiC,North
2019-10-25T13:00:02Z,1572008403,2019,13,0,298.5417,298.5417,85.4372,128.0546,-999.00,-22.6,-999.0,no,yes,no,300234068314190,SVP,PRIC,MOSAiC,North
2019-10-25T13:59:57Z,1572011997,2019,14,0,298.5833,298.5833,85.4378,128.028,-999.00,-22.8,-999.0,no,yes,no,300234068314190,SVP,PRIC,MOSAiC,North
2019-10-25T15:00:00Z,1572015600,2019,15,0,298.625,298.625,85.4386,128.0044,-999.00,-22.8,-999.0,no,yes,no,300234068314190,SVP,PRIC,MOSAiC,North
2019-10-25T16:00:02Z,1572019203,2019,16,0,298.6667,298.6667,85.4394,127.9856,-999.00,-21.5,-999.0,no,yes,no,300234068314190,SVP,PRIC,MOSAiC,North
2019-10-25T16:59:57Z,1572022797,2019,17,0,298.7083,298.7083,85.44,127.9676,-999.00,-20.0,-999.0,no,yes,no,300234068314190,SVP,PRIC,MOSAiC,North
2019-10-25T18:00:00Z,1572026400,2019,18,0,298.75,298.75,85.4404,127.9492,-999.00,-19.1,-999.0,no,yes,no,300234068314190,SVP,PRIC,MOSAiC,North
2019-10-25T19:00:02Z,1572030003,2019,19,0,298.7917,298.7917,85.4406,127.9324,-999.00,-18.2,-999.0,no,yes,no,300234068314190,SVP,PRIC,MOSAiC,North
2019-10-25T19:59:57Z,1572033597,2019,20,0,298.8333,298.8333,85.4404,127.9136,-999.00,-18.3,-999.0,no,yes,no,300234068314190,SVP,PRIC,MOSAiC,North
2019-10-25T21:00:00Z,1572037200,2019,21,0,298.875,298.875,85.4402,127.895,-999.00,-19.7,-999.0,no,yes,no,300234068314190,SVP,PRIC,MOSAiC,North
2019-10-25T22:00:02Z,1572040803,2019,22,0,298.9167,298.9167,85.44,127.872,-999.00,-20.6,-999.0,no,yes,no,300234068314190,SVP,PRIC,MOSAiC,North
2019-10-25T22:59:57Z,1572044397,2019,23,0,298.9583,298.9583,85.44,127.8472,-999.00,-20.6,-999.0,no,yes,no,300234068314190,SVP,PRIC,MOSAiC,North
2019-10-26T00:00:00Z,1572048000,2019,0,0,299.0,299.0,85.4402,127.8224,-999.00,-21.2,-999.0,no,yes,no,300234068314190,SVP,PRIC,MOSAiC,North
2019-10-26T01:00:02Z,1572051603,2019,1,0,299.0417,299.0417,85.4404,127.7982,-999.00,-22.0,-999.0,no,yes,no,300234068314190,SVP,PRIC,MOSAiC,North
2019-10-26T01:59:57Z,1572055197,2019,2,0,299.0833,299.0833,85.441,127.7764,-999.00,-21.9,-999.0,no,yes,no,300234068314190,SVP,PRIC,MOSAiC,North
2019-10-26T03:00:00Z,1572058800,2019,3,0,299.125,299.125,85.4416,127.7588,-999.00,-21.9,-999.0,no,yes,no,300234068314190,SVP,PRIC,MOSAiC,North
2019-10-26T04:00:02Z,1572062403,2019,4,0,299.1667,299.1667,85.4424,127.745,-999.00,-22.3,-999.0,no,yes,no,300234068314190,SVP,PRIC,MOSAiC,North
2019-10-26T04:59:57Z,1572065997,2019,5,0,299.2083,299.2083,85.443,127.7328,-999.00,-20.8,-999.0,no,yes,no,300234068314190,SVP,PRIC,MOSAiC,North
2019-10-26T06:00:00Z,1572069600,2019,6,0,299.25,299.25,85.4434,127.7212,-999.00,-19.5,-999.0,no,yes,no,300234068314190,SVP,PRIC,MOSAiC,North
2019-10-26T07:00:02Z,1572073203,2019,7,0,299.2917,299.2917,85.4436,127.7082,-999.00,-20.7,-999.0,no,yes,no,300234068314190,SVP,PRIC,MOSAiC,North
2019-10-26T07:59:57Z,1572076797,2019,8,0,299.3333,299.3333,85.4438,127.6918,-999.00,-20.5,-999.0,no,yes,no,300234068314190,SVP,PRIC,MOSAiC,North
2019-10-26T09:00:00Z,1572080400,2019,9,0,299.375,299.375,85.444,127.6722,-999.00,-21.4,-999.0,no,yes,no,300234068314190,SVP,PRIC,MOSAiC,North
2019-10-26T10:00:02Z,1572084003,2019,10,0,299.4167,299.4167,85.4444,127.6482,-999.00,-20.9,-999.0,no,yes,no,300234068314190,SVP,PRIC,MOSAiC,North
2019-10-26T10:59:57Z,1572087597,2019,11,0,299.4583,299.4583,85.4448,127.6218,-999.00,-22.0,-999.0,no,yes,no,300234068314190,SVP,PRIC,MOSAiC,North
2019-10-26T12:00:00Z,1572091200,2019,12,0,299.5,299.5,85.4456,127.5944,-999.00,-23.0,-999.0,no,yes,no,300234068314190,SVP,PRIC,MOSAiC,North
2019-10-26T13:00:02Z,1572094803,2019,13,0,299.5417,299.5417,85.4464,127.568,-999.00,-23.7,-999.0,no,yes,no,300234068314190,SVP,PRIC,MOSAiC,North
2019-10-26T13:59:57Z,1572098397,2019,14,0,299.5833,299.5833,85.4476,127.5442,-999.00,-24.2,-999.0,no,yes,no,300234068314190,SVP,PRIC,MOSAiC,North
2019-10-26T15:00:00Z,1572102000,2019,15,0,299.625,299.625,85.4488,127.5238,-999.00,-24.8,-999.0,no,yes,no,300234068314190,SVP,PRIC,MOSAiC,North
2019-10-26T16:00:02Z,1572105603,2019,16,0,299.6667,299.6667,85.45,127.5066,-999.00,-25.0,-999.0,no,yes,no,300234068314190,SVP,PRIC,MOSAiC,North
2019-10-26T16:59:57Z,1572109197,2019,17,0,299.7083,299.7083,85.4512,127.4918,-999.00,-25.2,-999.0,no,yes,no,300234068314190,SVP,PRIC,MOSAiC,North
2019-10-26T18:00:00Z,1572112800,2019,18,0,299.75,299.75,85.4524,127.4778,-999.00,-24.7,-999.0,no,yes,no,300234068314190,SVP,PRIC,MOSAiC,North
2019-10-26T19:00:02Z,1572116403,2019,19,0,299.7917,299.7917,85.4534,127.463,-999.00,-24.0,-999.0,no,yes,no,300234068314190,SVP,PRIC,MOSAiC,North
2019-10-26T19:59:57Z,1572119997,2019,20,0,299.8333,299.8333,85.4546,127.4456,-999.00,-24.4,-999.0,no,yes,no,300234068314190,SVP,PRIC,MOSAiC,North
2019-10-26T21:00:00Z,1572123600,2019,21,0,299.875,299.875,85.4556,127.4252,-999.00,-24.6,-999.0,no,yes,no,300234068314190,SVP,PRIC,MOSAiC,North
2019-10-26T22:00:02Z,1572127203,2019,22,0,299.9167,299.9167,85.4568,127.4004,-999.00,-25.0,-999.0,no,yes,no,300234068314190,SVP,PRIC,MOSAiC,North
2019-10-26T22:59:57Z,1572130797,2019,23,0,299.9583,299.9583,85.4582,127.3728,-999.00,-24.8,-999.0,no,yes,no,300234068314190,SVP,PRIC,MOSAiC,North
2019-10-27T00:00:00Z,1572134400,2019,0,0,300.0,300.0,85.46,127.3444,-999.00,-25.0,-999.0,no,yes,no,300234068314190,SVP,PRIC,MOSAiC,North